Torna al catalogo

COSMOS 970 DEB

AttivoLEO
NORAD 64966·DEBRIS·🇷🇺 Russia

Lanciato Dec 21, 1977 da Baikonur Cosmodrome

Loading…

Prossimi Passaggi (prossime 24 ore)

TLE

ObsoletoSource: Space-Track

Epoca: Sep 6, 2026, 09:49 UTC

1 64966U 77121CB  26249.40935563  .00000214  00000-0  28095-3 0  9991
2 64966  65.8131 290.7337 0102605 150.5271 210.1633 13.78373712642755

Traccia COSMOS 970 DEB in tempo reale con AllMySat

Download on the App Store